Terminal Aerodrome Forecast
Issued by NWS Wakefield, VA

Home | Current Version | Previous Version | Text Only | Print | Product List | Glossary On
Versions: 1 2 3 4 5 6 7 8 9 10 11 12 13 14 15 16 17
000
FTUS41 KAKQ 260500
TAFORF
TAF
KORF 260535Z 2606/2706 05010KT P6SM -RA BKN012 OVC030
     FM260800 03015G22KT 4SM -RA BR OVC009
     FM261000 03019G28KT 2SM -RA BR OVC007
     FM262000 01014G22KT 3SM -RA BR OVC005
     FM270000 32010KT P6SM OVC025=

USA.gov is the U.S. government's official web portal to all federal, state and local government web resources and services.